Powrót do katalogu

STARLINK-36783

AktywnyŁącznośćVLEO
NORAD 67873·PAYLOAD·🇺🇸 United States

Wystrzelony Feb 20, 2026 z Vandenberg Space Force Base

Loading…

Następne Przeloty (najbliższe 24 godziny)

TLE

ŚwieżeSource: CelesTrak SupGP

Epoka: Sep 14, 2026, 22:36 UTC

1 67873C 26034Z   26257.94215278  .00020931  00000+0  61834-3 0  2572
2 67873  53.1590  40.0199 0001125  66.7307 300.5855 15.34384317    13

Śledź STARLINK-36783 w czasie rzeczywistym z AllMySat

Download on the App Store